Regional Weather Roundup
Issued by NWS

Home | Current Version | Previous Version | Text Only | Print | Product List | Glossary On
Versions: 1 2 3 4 5 6 7 8 9 10 11 12 13 14 15 16 17 18 19 20 21 22 23 24 25 26 27 28 29 30 31 32 33 34 35 36 37 38 39 40 41 42 43 44 45 46 47 48 49 50
000
ASUS43 KMKX 041121
RWRWI

WISCONSIN REGIONAL WEATHER ROUNDUP
NATIONAL WEATHER SERVICE MILWAUKEE/SULLIVAN WI
600 AM CDT WED MAY 04 2016

NOTE: "FAIR" INDICATES FEW OR NO CLOUDS BELOW 12,000 FEET WITH NO
SIGNIFICANT WEATHER AND/OR OBSTRUCTIONS TO VISIBILITY.

WIZ001-002-006>008-014>016-023>028-041200-
NORTHWEST WISCONSIN

CITY           SKY/WX    TMP DP  RH WIND       PRES   REMARKS
SUPERIOR ARPT  CLEAR     41  32  72 N6        29.93R
ASHLAND        CLEAR     40  33  76 N9        29.89S WCI  34
HAYWARD        CLEAR     31  27  85 CALM      29.89S
SIREN          CLEAR     33  29  86 NW5       29.93R WCI  29
CUMBERLAND     CLEAR     37  32  81 NW8       29.90R WCI  31
RICE LAKE      CLEAR     41  32  70 NW5       29.91R
CHETEK         CLEAR     40  33  76 NW3       29.90R
LADYSMITH      CLEAR     39  34  80 NW9       29.88R WCI  33
EAU CLAIRE     CLEAR     41  33  73 NW8       29.87R
MENOMONIE      CLEAR     41  32  71 W6        29.89S
NEW RICHMOND   CLEAR     40  32  74 NW5       29.93R
OSCEOLA        CLEAR     42  33  71 NW5       29.96S
$$

WIZ003>005-009-010-017-018-041200-
NORTH CENTRAL WISCONSIN

CITY           SKY/WX    TMP DP  RH WIND       PRES   REMARKS
MANITOWISH WTR PTCLDY    38  35  88 N7        29.82S WCI  33
ARBOR VITAE    MOCLDY    39  35  84 N9G16     29.82R WCI  33
WOODRUFF       MOCLDY    39  35  84 N9G16     29.82R WCI  33
RHINELANDER    LGT RAIN  39  35  86 N9        29.81R WCI  33
EAGLE RIVER    CLOUDY    37  32  82 N10G18    29.80S WCI  30
LAND O LAKES   CLOUDY    38  34  86 N10G20    29.82R WCI  30
PHILLIPS       CLEAR     37  33  84 NW6       29.83R WCI  33
TOMAHAWK       CLOUDY    38  35  89 NW5       29.82R WCI  34
MEDFORD        PTCLDY    35  35  98 NW6       29.82R WCI  30
MERRILL        MOCLDY    38  37  94 N7        29.81S WCI  33
$$

WIZ029-030-035-036-043>047-041200-
CENTRAL WISCONSIN

CITY           SKY/WX    TMP DP  RH WIND       PRES   REMARKS
WAUSAU         CLOUDY    41  36  82 NW7       29.79S
MOSINEE        MOCLDY    39  37  93 NW8       29.81S WCI  34
MARSHFIELD     CLEAR     38  34  85 NW8       29.81R WCI  32
STEVENS POINT  CLOUDY    39  35  85 NW5       29.81R
WAUPACA        PTCLDY    42  37  80 NW7       29.78R
WAUTOMA        CLEAR     41  37  86 NW9       29.79R
WISC RAPIDS    CLEAR     40  35  83 N8        29.82R WCI  34
CAMP DOUGLAS   CLEAR     40  40 100 NW9       29.82R WCI  34
$$

WIZ011>013-019>022-031-037>040-048>050-041200-
NORTHEAST WISCONSIN

CITY           SKY/WX    TMP DP  RH WIND       PRES   REMARKS
ANTIGO         CLOUDY    38  35  87 N12G20    29.78R WCI  31
SHAWANO        MOCLDY    41  36  81 NW3       29.77R
OCONTO         CLOUDY    41  38  91 N9        29.75R
STURGEON BAY   MOCLDY    41  34  75 N17G24    29.75R
GREEN BAY      LGT RAIN  42  36  79 N13       29.75R
MANITOWOC      MOCLDY    43  37  79 N17G28    29.72R
APPLETON       MOCLDY    39  34  81 N10       29.74R WCI  32
CLINTONVILLE   CLOUDY    41  34  75 NW6       29.78R
OSHKOSH        CLEAR     41  35  79 N13       29.76R
$$

WIZ032>034-041-042-053>061-041200-
SOUTHWEST WISCONSIN

CITY           SKY/WX    TMP DP  RH WIND       PRES   REMARKS
LA CROSSE      CLEAR     44  37  76 N8        29.86R
SPARTA         CLEAR     39  38  93 CALM      29.86R
VIROQUA        PTCLDY    42  39  90 N9        29.83R
BOSCOBEL       MOCLDY    47  42  83 N10       29.82R
PRAIRIE DU CHI CLEAR     47  40  76 N9        29.83R
PLATTEVILLE    PTCLDY    45  44  97 N13       29.79R
$$

WIZ056-057-062-063-064-067-068-041200-
SOUTH CENTRAL WISCONSIN

CITY           SKY/WX    TMP DP  RH WIND       PRES   REMARKS
REEDSBURG      MOCLDY    44  39  85 N13       29.80R
BARABOO/DELLS  CLOUDY    43  39  85 N10       29.80R
LONE ROCK      LGT RAIN  46  40  79 NW7       29.81R
MINERAL POINT  PTCLDY    45  43  93 N9        29.79R
MADISON        PTCLDY    43  40  89 N9        29.76R
MIDDLETON      MOCLDY    45  41  86 N13G20    29.77R
WATERTOWN      PTCLDY    44  42  93 N10G18    29.74R
MONROE         CLOUDY    45  43  93 N15       29.75R
JANESVILLE     PTCLDY    45  45 100 N8        29.73R
$$

WIZ051-052-058>065-066-070>072-041200-
SOUTHEAST WISCONSIN

CITY           SKY/WX    TMP DP  RH WIND       PRES   REMARKS
MILWAUKEE      MOCLDY    46  40  79 N13G20    29.70R
WAUKESHA       MOCLDY    43  39  87 NW17      29.72R
MILWAUKEE/TIMM MOCLDY    45  37  76 N12G18    29.72R
RACINE         CLOUDY    45  40  82 N16G22    29.72R
BURLINGTON     MOCLDY    45  42  89 N9        29.71R
KENOSHA        CLOUDY    44  40  85 N7        29.70R
FOND DU LAC    CLOUDY    43  37  79 N15       29.76R
SHEBOYGAN      MOCLDY    42  36  79 N16G22    29.72R
WEST BEND      MOCLDY    41  36  81 N10       29.72R
JUNEAU         MOCLDY    42  37  84 N13G23    29.75R
$$

LSZ147-162-041200-
LAKE SUPERIOR

STATION/POSITION TIME  TEMP    WIND        PRES    WAVE
                       AIR SEA DIR/SP/G            HT/PER
                 (UTC) (F)     (DEG/KT/KT) (MB)    (FT/S)
W MID LAKE BUOY  1050   39 37  350/  6/  6 1012.2R   1/ 4
DEVILS ISLAND    1100   43      30/ 16/ 17 1012.9R
SAXON HARBOR     1000   42     310/ 11/ 13 1011.2S
$$

LMZ867-665-643>646-041200-
LAKE MICHIGAN

STATION/POSITION TIME  TEMP    WIND        PRES    WAVE
                       AIR SEA DIR/SP/G            HT/PER
                 (UTC) (F)     (DEG/KT/KT) (MB)    (FT/S)
CHAMBERS ISLAND  1000   42     320/ 14/ 16 1006.8R
N MID LAKE BUOY  1050   40 38  320/ 21/ 27 1005.0R   4/ 5
NORTHPORT PIER   1100   41     340/ 23     1006.8R
ALGOMA LAKESHORE 0915          330/ 14/ 18   N/A
KEWAUNEE LAKESHO 1100   42     330/ 11/ 18 1005.8R
SHEBOYGAN LAKESH 1100   43     340/ 15/ 18 1006.6R
PORT WASHINGTON  1000   46     350/  6/  8 1006.4R
S MID LAKE BUOY  1050   42 41  360/ 23/ 29 1003.4R   3/ 4
KENOSHA   LAKESH 1100   45     360/ 15/ 19 1005.8R
$$

TC  - TEMPERATURE IN CELSIUS
VSB - VISIBILITY IN STATUTE MILES
WCI - WIND CHILL INDEX
HX  - HEAT INDEX




USA.gov is the U.S. government's official web portal to all federal, state and local government web resources and services.